Location: Grossmotten
(48.5500°N, 15.3833°E)
Time: 21:07:03
(UTC+00:00)

Meteor PRIRODA - Pass Details

Date: 15 November 2019
Orbit: 490 x 512 km, 97.5° (Epoch: 10 December)

Event Time Altitude Azimuth Distance (km) Brightness Sun altitude
Rises 04:01:08 0° 12° (NNE) 2,610 7.4 -20.5°
Reaches altitude 10° 04:03:14 10° 13° (NNE) 1,717 6.4 -20.2°
Maximum altitude 04:06:56 89° 285° (WNW) 505 3.5 -19.6°
Drops below altitude 10° 04:10:34 10° 195° (SSW) 1,690 6.2 -19.0°
Sets 04:12:38 0° 195° (SSW) 2,564 7.2 -18.6°
